Location: Riverside Cemetery
(38.3047°N, 99.7773°W)
Time: 03:40:07
(UTC+00:00)

SL-16 R/B - Pass Details

Date: 19 September 2020
Orbit: 842 x 846 km, 71.0° (Epoch: 22 October)

Event Time Altitude Azimuth Distance (km) Brightness Sun altitude
Exits shadow 11:13:40 10° 212° (SSW) 2,440 4.2 -14.6°
Maximum altitude 11:19:14 65° 294° (WNW) 923 2.2 -13.6°
Drops below altitude 10° 11:24:52 10° 17° (NNE) 2,471 5.0 -12.5°
Sets 11:27:21 0° 20° (NNE) 3,410 5.8 -12.0°
